Tracking 20232 objects as of 20-Jan-2020
HD Live streaming from Space Station
objects crossing your sky now

CZ-5 R/B

Track CZ-5 R/B now!
10-day predictions


NORAD ID: 41839
Int'l Code: 2016-065B
Perigee: 187.9 km
Apogee: 23,392.5 km
Inclination: 19.3 °
Period: 406.0 minutes
Semi major axis: 18161 km
RCS: Unknown
Launch date: November 3, 2016
Source: People's Republic of China (PRC)
Launch site: Wenchang Satellite Launch Center (WSC)

Note: This is a ROCKET BODY
aabbcc
Your satellite tracking list
Your tracking list is empty




NASA's NSSDC Master Catalog

Two Line Element Set (TLE):
1 41839U 16065B   20019.58332310 +.00030538 -31627-6 +68848-3 0  9992
2 41839 019.3038 239.7999 6388520 079.6258 342.0924 03.54720673038516
Source of the keplerian elements: AFSPC